SPOT 6

Last updated on Mon Sep 07 2026 00:02:45 GMT+0000 (Coordinated Universal Time)

1 38755U 12047A 26249.62841281 .00000217 00000+0 56605-4 0 9992 2 38755 98.2050 315.9535 0001648 91.1346 269.0042 14.58560504744925
UTC large
Height (km)
Speed (km/s)
/
Latitude / Longitude
Inclination (degrees)
Orbital Period (minutes)
Azimuth
Elevation
Range (km)
Doppler Factor

Next 0 passes for location: London (51.5072 / 0.1276)

No passes found over London.
SPOT 6